Weather Roundup
Issued by NWS

Current Version | Previous Version | Text Only | Print | Product List | Glossary On
Versions: 1 2 3 4 5 6 7 8 9 10 11 12 13 14 15 16 17 18 19 20 21 22 23 24 25 26 27 28 29 30 31 32 33 34 35 36 37 38 39 40 41 42 43 44 45 46 47 48 49 50
000
NZUS93 KARX 070510
HRRWXR

CURRENT HOURLY OBSERVATIONS ACROSS
MUCH OF THE UPPER MISSISSIPPI VALLEY
NATIONAL WEATHER SERVICE LA CROSSE WI
1100 PM CST SAT MAR 06 2021


...SOUTHEAST MINNESOTA...


CITY           SKY/WX    TMP DP  RH WIND       PRES   REMARKS
ROCHESTER      CLEAR     33  25  72 SE12      30.24F WCI  24
ROCHESTER/MAYO CLEAR     35  24  64 SE9       30.25S WCI  27
WINONA         CLEAR     28  25  86 CALM      30.30S
AUSTIN         CLEAR     36  28  75 SE6       30.24S WCI  31
ALBERT LEA     CLEAR     36  28  75 SE10      30.22S WCI  28
DODGE CENTER   CLEAR     34  27  75 SE9       30.23S WCI  26
PRESTON        CLEAR     32  24  73 SE8       30.26S WCI  25
OWATONNA       CLEAR     36  28  75 SE10      30.22S WCI  28
FARIBAULT      CLEAR     32  27  80 SE3       30.22S
$$

...ELSEWHERE IN MINNESOTA...


CITY           SKY/WX    TMP DP  RH WIND       PRES   REMARKS
MINNEAPOLIS    CLEAR     34  22  61 SE9       30.23S WCI  27
INTNL FALLS    PTCLDY    25  13  60 SE8       30.14F WCI  16
DULUTH         CLEAR     25  18  74 E7        30.25R WCI  17
RED WING       CLEAR     28  21  74 SE5       30.25F WCI  23
REDWOOD FALLS  MOCLDY    35  30  82 SE13      30.13S WCI  26
MANKATO        CLEAR     35  30  82 SE15      30.19F WCI  25
WORTHINGTON    PTCLDY    37  33  85 S15       30.11F WCI  28
FAIRMONT       NOT AVBL
$$

...SOUTHWEST WISCONSIN...


CITY           SKY/WX    TMP DP  RH WIND       PRES   REMARKS
LA CROSSE      CLEAR     28  20  71 SE7       30.30R WCI  21
PRAIRIE DU CHI CLEAR     29  23  79 E3        30.31R
BOSCOBEL       CLEAR     26  22  84 CALM      30.32R
LONE ROCK      CLEAR     23  20  88 CALM      30.33R
PLATTEVILLE    CLEAR     31  24  74 E10       30.31R WCI  22
FORT MC COY      N/A     20  16  84 CALM      30.31S
CAMP DOUGLAS   CLEAR     21  20  99 CALM      30.30S
MAUSTON-NEW LI CLEAR     23  19  87 CALM      30.30S
VIROQUA        CLEAR     32  20  61 E6        30.28S WCI  26
WIS DELLS      CLEAR     24  17  75 CALM      30.31S
$$

...ELSEWHERE IN WISCONSIN...


CITY           SKY/WX    TMP DP  RH WIND       PRES   REMARKS
MILWAUKEE      CLEAR     29  25  85 NE6       30.33R WCI  23
MADISON        CLEAR     24  20  84 CALM      30.31R
GREEN BAY      CLEAR     26  21  81 NE7       30.36R WCI  18
EAU CLAIRE     CLEAR     24  12  60 CALM      30.28R
BLACK RVR FLS  CLEAR     17  15  90 CALM      30.30R
MEDFORD        CLEAR     24   8  49 E5        30.28R WCI  18
WAUSAU         CLEAR     24  15  68 CALM      30.29R
WIS RAPIDS     CLEAR     25  17  72 CALM      30.31R
MARSHFIELD     CLEAR     25  16  68 E5        30.29R WCI  19
RICE LAKE      CLEAR     22  18  84 CALM      30.28S
$$

...NORTHEAST IOWA...


CITY           SKY/WX    TMP DP  RH WIND       PRES   REMARKS
WATERLOO       CLEAR     32  25  75 SE6       30.26S WCI  26
DUBUQUE        CLEAR     33  22  63 E7        30.29S WCI  27
DECORAH        CLEAR     34  27  75 SE6       30.26S WCI  29
MASON CITY     CLEAR     35  26  69 SE10      30.24S WCI  27
CHARLES CITY   CLEAR     34  27  75 SE8       30.25S WCI  27
OELWEIN        CLEAR     32  25  74 SE10      30.27S WCI  24
$$

...ELSEWHERE IN IOWA...


CITY           SKY/WX    TMP DP  RH WIND       PRES   REMARKS
DES MOINES     CLEAR     42  32  67 E8        30.22S
IOWA CITY      CLEAR     36  28  73 VRB3      30.30S
FORT DODGE     CLEAR     36  31  82 SE8       30.19F WCI  30
MARSHALLTOWN   CLEAR     32  28  85 E10       30.24S WCI  24
CEDAR RAPIDS   CLEAR     31  26  82 SE7       30.27R WCI  24
$$

...NORTHERN ILLINOIS...


CITY           SKY/WX    TMP DP  RH WIND       PRES   REMARKS
CHICAGO-OHARE  CLEAR     31  23  72 SW3       30.32S
CHICAGO-MIDWAY CLEAR     32  25  75 CALM      30.33S
MOLINE         CLEAR     32  25  75 E6        30.30S WCI  26
ROCKFORD       CLEAR     28  20  71 CALM      30.34R
PEORIA         CLEAR     39  27  62 E10       30.31S WCI  32
$$

NOTE: "FAIR" INDICATES FEW OR NO CLOUDS BELOW 12,000 FEET WITH NO
SIGNIFICANT WEATHER AND/OR OBSTRUCTIONS TO VISIBILITY. WIND
SPEEDS ARE IN MILES-PER-HOUR.




USA.gov is the U.S. government's official web portal to all federal, state and local government web resources and services.